KF5JED-13 Weather Reports


Display with metric or nautical units.
time (UTC)temp
F
wind
direction
speed
MPH
gust
MPH
rain 1hr
in
rain 24hr
in
rain mn
in
humidity
%
barometer
mb
20260510100620 60 68 15.0 21.0 0.00 0.00 0.00 85 1013.7
20260510100118 60 69 17.0 18.0 0.00 0.00 0.00 85 1013.3
20260510095614 60 72 10.0 16.0 0.00 0.00 0.00 85 1013.8
20260510095114 60 46 9.0 11.0 0.00 0.00 0.00 85 1013.9
20260510094612 60 26 3.0 10.0 0.00 0.00 0.00 84 1013.9
20260510094108 60 38 6.0 10.0 0.00 0.00 0.00 84 1013.8
20260510093605 60 72 9.0 11.0 0.00 0.00 0.00 84 1013.6
20260510093102 60 76 8.0 11.0 0.00 0.00 0.00 84 1013.5
20260510092559 60 82 9.0 11.0 0.00 0.00 0.00 83 1012.9
20260510092058 60 79 9.0 13.0 0.00 0.00 0.00 83 1012.7
20260510091555 61 79 7.0 16.0 0.00 0.00 0.00 82 1012.6
20260510091051 61 80 9.0 14.0 0.00 0.00 0.00 82 1012.6
20260510090549 61 84 11.0 15.0 0.00 0.00 0.00 81 1012.3
20260510090044 61 87 8.0 11.0 0.00 0.00 0.00 80 1012.5
20260510085539 62 73 6.0 11.0 0.00 0.00 0.00 79 1012.7
20260510085035 62 62 5.0 9.0 0.00 0.00 0.00 79 1012.7
20260510084532 62 67 7.0 10.0 0.00 0.00 0.00 78 1012.8
20260510084029 62 60 8.0 12.0 0.00 0.00 0.00 77 1012.9
20260510083525 63 76 7.0 13.0 0.00 0.00 0.00 77 1012.8
20260510083021 63 91 7.0 13.0 0.00 0.00 0.00 77 1012.8
20260510082518 63 87 7.0 9.0 0.00 0.00 0.00 76 1012.9
20260510082018 63 79 8.0 14.0 0.00 0.00 0.00 76 1012.6
20260510081514 64 82 8.0 13.0 0.00 0.00 0.00 75 1012.8
20260510081010 64 93 7.0 15.0 0.00 0.00 0.00 75 1012.5
20260510080509 64 94 12.0 17.0 0.00 0.00 0.00 75 1012.5
20260510080006 64 94 17.0 20.0 0.00 0.00 0.00 74 1012.6
20260510075504 65 87 8.0 17.0 0.00 0.00 0.00 74 1012.2
20260510075000 65 99 14.0 19.0 0.00 0.00 0.00 74 1012.1
20260510074458 65 98 10.0 21.0 0.00 0.00 0.00 74 1012.1
20260510073953 65 89 8.0 17.0 0.00 0.00 0.00 74 1011.8
20260510073449 65 84 9.0 19.0 0.00 0.00 0.00 74 1011.5
20260510072946 66 67 9.0 17.0 0.00 0.00 0.00 73 1011.6
20260510072443 66 68 11.0 16.0 0.00 0.00 0.00 73 1011.8
20260510071938 66 47 10.0 17.0 0.00 0.00 0.00 73 1011.8
20260510071435 67 79 11.0 19.0 0.00 0.00 0.00 73 1011.9
20260510070933 67 60 10.0 15.0 0.00 0.00 0.00 73 1012.0
20260510070430 67 69 12.0 19.0 0.00 0.00 0.00 72 1011.8
20260510065926 67 71 13.0 18.0 0.00 0.00 0.00 72 1011.7
20260510065422 67 60 9.0 15.0 0.00 0.00 0.00 73 1011.8
20260510064918 67 69 13.0 17.0 0.00 0.00 0.00 72 1011.9
20260510064417 68 59 13.0 18.0 0.00 0.00 0.00 72 1011.8
20260510063913 68 54 10.0 17.0 0.00 0.00 0.00 72 1011.1
20260510063409 68 52 14.0 21.0 0.00 0.00 0.00 72 1011.6
20260510062907 68 70 16.0 19.0 0.00 0.00 0.00 72 1011.3
20260510062402 68 82 17.0 19.0 0.00 0.00 0.00 71 1011.7
20260510061858 68 92 13.0 19.0 0.00 0.00 0.00 71 1011.5
20260510061355 69 65 11.0 15.0 0.00 0.00 0.00 70 1011.5
20260510060850 69 61 17.0 21.0 0.00 0.00 0.00 68 1011.3
20260510060347 69 71 12.0 20.0 0.00 0.00 0.00 68 1011.1
20260510055843 70 74 15.0 24.0 0.00 0.00 0.00 67 1011.6
20260510055343 70 59 11.0 14.0 0.00 0.00 0.00 66 1012.0
20260510054837 70 49 7.0 9.0 0.00 0.00 0.00 65 1012.3
20260510054333 71 89 6.0 8.0 0.00 0.00 0.00 64 1011.8
20260510053827 71 67 10.0 16.0 0.00 0.00 0.00 63 1011.5
20260510053323 71 96 10.0 19.0 0.00 0.00 0.00 63 1010.9
20260510052820 72 111 8.0 25.0 0.00 0.00 0.00 61 1010.6
20260510052316 72 173 2.0 16.0 0.00 0.00 0.00 60 1010.8
20260510051812 72 64 11.0 13.0 0.00 0.00 0.00 59 1011.5
20260510051309 72 31 3.0 8.0 0.00 0.00 0.00 58 1011.3
20260510050805 72 69 10.0 14.0 0.00 0.00 0.00 58 1011.1
20260510050256 72 63 10.0 13.0 0.00 0.00 0.00 57 1011.0
20260510045753 72 86 6.0 10.0 0.00 0.00 0.00 54 1011.0
20260510045244 72 76 7.0 9.0 0.00 0.00 0.00 52 1010.9
20260510044742 73 32 5.0 8.0 0.00 0.00 0.00 50 1011.0
20260510044239 73 78 4.0 6.0 0.00 0.00 0.00 50 1010.9
20260510043734 72 85 4.0 5.0 0.00 0.00 0.00 51 1010.8
20260510043231 71 89 4.0 4.0 0.00 0.00 0.00 48 1011.0
20260510042729 71 193 4.0 5.0 0.00 0.00 0.00 46 1011.2
20260510042224 72 238 3.0 4.0 0.00 0.00 0.00 47 1011.1
20260510041721 72 324 3.0 4.0 0.00 0.00 0.00 43 1010.9
20260510041218 73 11 4.0 6.0 0.00 0.00 0.00 48 1010.9
20260510040715 73 79 4.0 8.0 0.00 0.00 0.00 46 1010.8
20260510040212 73 80 7.0 9.0 0.00 0.00 0.00 43 1010.7
20260510035707 74 63 6.0 9.0 0.00 0.00 0.00 39 1010.6
20260510035204 74 3 4.0 5.0 0.00 0.00 0.00 31 1010.8
20260510034700 75 1 4.0 7.0 0.00 0.00 0.00 22 1010.4
20260510034157 76 21 4.0 8.0 0.00 0.00 0.00 26 1010.2
20260510033653 76 49 4.0 6.0 0.00 0.00 0.00 21 1010.2
20260510033151 78 52 5.0 7.0 0.00 0.00 0.00 20 1010.2
20260510032647 79 60 7.0 14.0 0.00 0.00 0.00 19 1010.6
20260510032143 79 41 5.0 8.0 0.00 0.00 0.00 18 1010.4
20260510031637 80 23 2.0 3.0 0.00 0.00 0.00 18 1010.4
20260510031135 78 349 3.0 6.0 0.00 0.00 0.00 18 1010.3
20260510030629 75 219 3.0 11.0 0.00 0.00 0.00 19 1010.3
20260510030127 76 210 6.0 6.0 0.00 0.00 0.00 19 1009.8
20260510025624 76 337 2.0 3.0 0.00 0.00 0.00 19 1009.7
20260510025121 77 7 3.0 4.0 0.00 0.00 0.00 18 1009.4
20260510024618 77 29 3.0 4.0 0.00 0.00 0.00 18 1009.2
20260510024114 79 9 3.0 5.0 0.00 0.00 0.00 17 1008.9
20260510023610 79 70 3.0 7.0 0.00 0.00 0.00 17 1008.8
20260510023108 78 76 4.0 6.0 0.00 0.00 0.00 18 1008.6
20260510022607 78 66 5.0 5.0 0.00 0.00 0.00 18 1008.6
20260510022102 77 83 3.0 4.0 0.00 0.00 0.00 18 1008.6
20260510021559 78 91 4.0 5.0 0.00 0.00 0.00 17 1008.4
20260510021056 79 105 3.0 6.0 0.00 0.00 0.00 17 1008.3
20260510020556 79 97 4.0 5.0 0.00 0.00 0.00 17 1008.4
20260510020052 80 82 4.0 5.0 0.00 0.00 0.00 17 1008.3
20260510015548 80 85 3.0 6.0 0.00 0.00 0.00 17 1008.1
20260510015044 80 69 3.0 5.0 0.00 0.00 0.00 17 1008.1
20260510014540 81 86 4.0 5.0 0.00 0.00 0.00 16 1008.0
20260510014038 81 78 3.0 5.0 0.00 0.00 0.00 17 1007.9
20260510013532 82 77 4.0 4.0 0.00 0.00 0.00 16 1008.0
20260510013028 82 85 2.0 3.0 0.00 0.00 0.00 17 1008.0
20260510012522 82 85 3.0 4.0 0.00 0.00 0.00 16 1007.8
20260510012019 83 75 0.0 3.0 0.00 0.00 0.00 16 1007.7
20260510011519 85 52 3.0 5.0 0.00 0.00 0.00 15 1007.7
20260510011014 86 40 3.0 4.0 0.00 0.00 0.00 15 1007.8
20260510010512 87 7 3.0 4.0 0.00 0.00 0.00 14 1007.4
20260510010009 89 353 3.0 3.0 0.00 0.00 0.00 14 1007.7
20260510005504 89 357 3.0 3.0 0.00 0.00 0.00 14 1007.4
20260510005002 89 11 1.0 3.0 0.00 0.00 0.00 14 1007.4
20260510004459 89 56 3.0 4.0 0.00 0.00 0.00 13 1007.6
20260510003957 90 355 3.0 4.0 0.00 0.00 0.00 13 1007.4
20260510003454 90 358 5.0 6.0 0.00 0.00 0.00 13 1007.4
20260510002949 90 1 4.0 6.0 0.00 0.00 0.00 13 1007.7
20260510002445 90 325 8.0 11.0 0.00 0.00 0.00 12 1007.8
20260510001942 90 9 6.0 8.0 0.00 0.00 0.00 13 1007.8
20260510001439 91 309 5.0 10.0 0.00 0.00 0.00 11 1007.7
20260510000937 90 318 5.0 8.0 0.00 0.00 0.00 11 1007.6
20260510000433 90 303 6.0 10.0 0.00 0.00 0.00 11 1007.7
20260509235929 90 300 9.0 13.0 0.00 0.00 0.00 11 1007.8
20260509235426 91 306 6.0 11.0 0.00 0.00 0.00 12 1007.7
20260509234922 91 341 9.0 13.0 0.00 0.00 0.00 12 1007.8
20260509234419 91 329 10.0 12.0 0.00 0.00 0.00 11 1007.9
20260509233917 91 295 10.0 15.0 0.00 0.00 0.00 11 1007.8
20260509233414 91 335 7.0 8.0 0.00 0.00 0.00 11 1008.0
20260509232910 91 340 14.0 21.0 0.00 0.00 0.00 11 1008.0
20260509232403 91 327 4.0 10.0 0.00 0.00 0.00 12 1007.9
20260509231858 91 314 7.0 14.0 0.00 0.00 0.00 12 1008.1
20260509231355 91 322 8.0 12.0 0.00 0.00 0.00 12 1008.1
20260509230853 91 256 7.0 10.0 0.00 0.00 0.00 11 1007.9
20260509230350 90 297 10.0 15.0 0.00 0.00 0.00 11 1008.0
20260509225845 91 301 13.0 16.0 0.00 0.00 0.00 11 1008.0
20260509225342 90 298 6.0 12.0 0.00 0.00 0.00 11 1008.2
20260509224838 91 300 8.0 11.0 0.00 0.00 0.00 12 1008.2
20260509224334 91 291 8.0 18.0 0.00 0.00 0.00 13 1008.2
20260509223831 91 309 9.0 11.0 0.00 0.00 0.00 12 1008.0
20260509223328 91 283 6.0 11.0 0.00 0.00 0.00 12 1008.0
20260509222825 90 309 10.0 15.0 0.00 0.00 0.00 11 1008.2
20260509222320 91 322 6.0 20.0 0.00 0.00 0.00 12 1008.1
20260509221816 91 300 6.0 15.0 0.00 0.00 0.00 12 1008.2
20260509221313 91 299 6.0 16.0 0.00 0.00 0.00 14 1008.1
20260509220808 91 317 13.0 16.0 0.00 0.00 0.00 13 1008.2
20260509220305 90 288 8.0 17.0 0.00 0.00 0.00 14 1008.6
20260509215800 92 306 11.0 12.0 0.00 0.00 0.00 13 1008.1
20260509215257 91 286 6.0 16.0 0.00 0.00 0.00 15 1008.3
20260509214754 92 286 8.0 13.0 0.00 0.00 0.00 15 1008.2
20260509214251 91 239 6.0 13.0 0.00 0.00 0.00 15 1008.3
20260509213748 91 299 8.0 17.0 0.00 0.00 0.00 14 1008.7
20260509213244 90 227 5.0 10.0 0.00 0.00 0.00 14 1008.6
20260509212741 92 308 15.0 17.0 0.00 0.00 0.00 14 1008.4
20260509212239 91 277 8.0 20.0 0.00 0.00 0.00 14 1008.7
20260509211734 91 294 14.0 14.0 0.00 0.00 0.00 15 1008.6
20260509211231 91 271 6.0 17.0 0.00 0.00 0.00 17 1008.8
20260509210727 90 267 8.0 14.0 0.00 0.00 0.00 16 1008.8
20260509210225 90 289 10.0 15.0 0.00 0.00 0.00 17 1008.7
20260509205724 91 320 13.0 19.0 0.00 0.00 0.00 18 1008.8
20260509205224 91 297 5.0 11.0 0.00 0.00 0.00 17 1008.7
20260509204721 91 296 8.0 14.0 0.00 0.00 0.00 18 1009.0
20260509204217 90 291 11.0 20.0 0.00 0.00 0.00 18 1009.0
20260509203713 90 296 13.0 19.0 0.00 0.00 0.00 18 1009.1
20260509203211 89 243 10.0 17.0 0.00 0.00 0.00 19 1009.3
20260509202707 89 313 11.0 17.0 0.00 0.00 0.00 18 1009.3
20260509202202 90 299 9.0 13.0 0.00 0.00 0.00 19 1009.4
20260509201657 89 275 7.0 14.0 0.00 0.00 0.00 20 1009.1
20260509201154 89 317 13.0 15.0 0.00 0.00 0.00 19 1009.4
20260509200651 90 233 5.0 11.0 0.00 0.00 0.00 18 1009.2
20260509200145 90 292 9.0 14.0 0.00 0.00 0.00 21 1009.3
20260509195641 89 231 4.0 13.0 0.00 0.00 0.00 20 1009.4
20260509195136 89 210 6.0 13.0 0.00 0.00 0.00 19 1009.6
20260509194631 90 231 6.0 13.0 0.00 0.00 0.00 18 1009.8
20260509194129 89 258 9.0 15.0 0.00 0.00 0.00 20 1009.6
20260509193624 89 233 7.0 11.0 0.00 0.00 0.00 21 1009.7
20260509193120 88 227 13.0 17.0 0.00 0.00 0.00 20 1009.9
20260509192617 89 236 2.0 12.0 0.00 0.00 0.00 20 1010.0
20260509192112 88 225 4.0 15.0 0.00 0.00 0.00 20 1010.2
20260509191607 88 234 13.0 19.0 0.00 0.00 0.00 20 1010.1
20260509191103 88 264 4.0 11.0 0.00 0.00 0.00 23 1010.2
20260509190600 87 286 3.0 13.0 0.00 0.00 0.00 22 1010.1
20260509190058 88 301 9.0 11.0 0.00 0.00 0.00 24 1010.3
20260509185555 86 295 6.0 15.0 0.00 0.00 0.00 23 1010.3
20260509185051 86 227 10.0 13.0 0.00 0.00 0.00 23 1010.3
20260509184550 87 235 4.0 15.0 0.00 0.00 0.00 24 1010.7
20260509184045 86 212 11.0 17.0 0.00 0.00 0.00 24 1010.8
20260509183541 85 268 7.0 15.0 0.00 0.00 0.00 24 1010.7
20260509183036 87 239 10.0 17.0 0.00 0.00 0.00 23 1010.8
20260509182533 86 221 15.0 26.0 0.00 0.00 0.00 23 1010.8
20260509182025 86 205 13.0 22.0 0.00 0.00 0.00 24 1010.9
20260509181523 86 221 11.0 16.0 0.00 0.00 0.00 25 1011.1
20260509181020 86 227 12.0 16.0 0.00 0.00 0.00 25 1011.3
20260509180515 85 212 11.0 17.0 0.00 0.00 0.00 26 1011.3
20260509180014 87 200 16.0 23.0 0.00 0.00 0.00 24 1011.5
20260509175508 84 207 5.0 13.0 0.00 0.00 0.00 27 1011.6
20260509175005 84 228 16.0 25.0 0.00 0.00 0.00 27 1011.7
20260509174502 83 212 12.0 17.0 0.00 0.00 0.00 28 1011.8
20260509173956 86 197 17.0 19.0 0.00 0.00 0.00 26 1011.8
20260509173451 85 218 13.0 19.0 0.00 0.00 0.00 28 1011.9
20260509172948 84 174 10.0 20.0 0.00 0.00 0.00 28 1011.8
20260509172445 83 203 11.0 14.0 0.00 0.00 0.00 30 1012.0
20260509171940 83 198 12.0 20.0 0.00 0.00 0.00 29 1012.2
20260509171437 83 210 10.0 16.0 0.00 0.00 0.00 30 1012.1
20260509170933 84 190 11.0 17.0 0.00 0.00 0.00 29 1012.1
20260509170429 83 200 17.0 24.0 0.00 0.00 0.00 30 1011.9
20260509165925 82 194 7.0 17.0 0.00 0.00 0.00 32 1012.1
20260509165419 82 204 7.0 19.0 0.00 0.00 0.00 33 1012.3
20260509164915 82 172 11.0 20.0 0.00 0.00 0.00 32 1012.3
20260509164411 81 197 15.0 19.0 0.00 0.00 0.00 32 1012.3
20260509163907 82 203 14.0 17.0 0.00 0.00 0.00 32 1012.5
20260509163404 80 213 15.0 20.0 0.00 0.00 0.00 34 1012.6
20260509162903 80 203 8.0 21.0 0.00 0.00 0.00 35 1012.8
20260509162402 80 202 11.0 22.0 0.00 0.00 0.00 35 1012.6
20260509161858 79 161 7.0 17.0 0.00 0.00 0.00 37 1012.8
20260509161354 80 176 12.0 18.0 0.00 0.00 0.00 36 1012.9
20260509160850 79 164 11.0 16.0 0.00 0.00 0.00 36 1012.8
20260509160346 79 164 9.0 20.0 0.00 0.00 0.00 37 1013.0
20260509155841 78 168 11.0 19.0 0.00 0.00 0.00 39 1012.9
20260509155338 77 172 9.0 20.0 0.00 0.00 0.00 38 1013.0
20260509154834 78 164 13.0 19.0 0.00 0.00 0.00 36 1012.9
20260509154331 78 159 14.0 17.0 0.00 0.00 0.00 40 1013.2
20260509153828 77 179 9.0 14.0 0.00 0.00 0.00 42 1013.1
20260509153324 76 152 14.0 15.0 0.00 0.00 0.00 41 1013.1
20260509152822 76 178 14.0 15.0 0.00 0.00 0.00 42 1013.0
20260509152317 75 193 8.0 18.0 0.00 0.00 0.00 46 1013.2
20260509151815 74 159 11.0 11.0 0.00 0.00 0.00 47 1013.3
20260509151311 74 186 9.0 16.0 0.00 0.00 0.00 47 1013.3
20260509150810 74 174 10.0 16.0 0.00 0.00 0.00 46 1013.3
20260509150307 74 187 10.0 14.0 0.00 0.00 0.00 49 1013.2
20260509145804 74 170 9.0 13.0 0.00 0.00 0.00 48 1013.2
20260509145306 74 164 12.0 14.0 0.00 0.00 0.00 51 1013.3
20260509144800 72 119 6.0 10.0 0.00 0.00 0.00 54 1013.5
20260509144257 71 162 9.0 11.0 0.00 0.00 0.00 53 1013.3
20260509143755 71 151 11.0 14.0 0.00 0.00 0.00 53 1013.5
20260509143252 72 155 9.0 13.0 0.00 0.00 0.00 52 1013.5
20260509142748 71 152 12.0 16.0 0.00 0.00 0.00 53 1013.6
20260509142244 71 159 13.0 17.0 0.00 0.00 0.00 52 1013.3
20260509141740 71 165 9.0 13.0 0.00 0.00 0.00 53 1013.6
20260509141237 70 130 5.0 7.0 0.00 0.00 0.00 54 1013.5
20260509140734 70 148 3.0 5.0 0.00 0.00 0.00 54 1013.5
20260509140231 70 95 3.0 4.0 0.00 0.00 0.00 50 1013.6
20260509135728 68 10 2.0 2.0 0.00 0.00 0.00 47 1013.6
20260509135226 66 4 2.0 2.0 0.00 0.00 0.00 47 1013.6
20260509134723 64 63 2.0 3.0 0.00 0.00 0.00 50 1013.7
20260509134221 62 17 2.0 3.0 0.00 0.00 0.00 50 1013.6
20260509133718 62 322 3.0 4.0 0.00 0.00 0.00 48 1013.7
20260509133214 66 19 3.0 4.0 0.00 0.00 0.00 47 1013.3
20260509132713 66 61 2.0 3.0 0.00 0.00 0.00 46 1013.6
20260509132211 64 50 0.0 2.0 0.00 0.00 0.00 49 1013.8
20260509131707 63 85 4.0 4.0 0.00 0.00 0.00 48 1013.3
20260509131204 61 77 1.0 2.0 0.00 0.00 0.00 51 1013.6
20260509130659 62 110 0.0 2.0 0.00 0.00 0.00 49 1013.7
20260509130150 59 142 0.0 0.0 0.00 0.00 0.00 53 1013.6
20260509125646 59 126 0.0 2.0 0.00 0.00 0.00 53 1013.5
20260509125143 58 89 2.0 2.0 0.00 0.00 0.00 54 1013.7
20260509124640 57 60 1.0 2.0 0.00 0.00 0.00 56 1013.3
20260509124137 55 48 2.0 2.0 0.00 0.00 0.00 58 1013.6
20260509123635 55 131 0.0 0.0 0.00 0.00 0.00 58 1013.5
20260509123131 54 102 1.0 2.0 0.00 0.00 0.00 62 1013.5
20260509122627 53 76 0.0 2.0 0.00 0.00 0.00 63 1013.6
20260509122124 51 93 1.0 2.0 0.00 0.00 0.00 66 1013.3
20260509121620 50 103 2.0 2.0 0.00 0.00 0.00 67 1013.3
20260509121119 49 132 2.0 2.0 0.00 0.00 0.00 68 1013.3
20260509120616 49 121 0.0 2.0 0.00 0.00 0.00 67 1013.2
20260509120115 49 117 2.0 4.0 0.00 0.00 0.00 68 1013.2
20260509115611 49 123 1.0 2.0 0.00 0.00 0.00 67 1013.3
20260509115109 49 110 2.0 2.0 0.00 0.00 0.00 68 1013.5
20260509114607 49 108 0.0 1.0 0.00 0.00 0.00 66 1013.3
20260509114106 50 26 0.0 1.0 0.00 0.00 0.00 66 1013.5
20260509113603 49 46 1.0 2.0 0.00 0.00 0.00 67 1013.3
20260509113101 49 66 0.0 1.0 0.00 0.00 0.00 65 1013.6
20260509112557 50 67 1.0 2.0 0.00 0.00 0.00 63 1013.7
20260509112054 51 116 0.0 0.0 0.00 0.00 0.00 63 1013.6
20260509111551 50 157 0.0 1.0 0.00 0.00 0.00 64 1013.5
20260509111048 51 112 2.0 2.0 0.00 0.00 0.00 63 1013.3
20260509110545 51 120 1.0 2.0 0.00 0.00 0.00 62 1013.5
20260509110042 51 110 2.0 2.0 0.00 0.00 0.00 62 1013.3
20260509105540 51 98 2.0 2.0 0.00 0.00 0.00 63 1013.5
20260509105038 51 141 0.0 2.0 0.00 0.00 0.00 63 1013.7
20260509104534 50 49 0.0 2.0 0.00 0.00 0.00 63 1013.7
20260509104031 50 92 0.0 1.0 0.00 0.00 0.00 62 1013.8
20260509103529 51 119 0.0 1.0 0.00 0.00 0.00 61 1013.6
20260509103027 51 106 1.0 2.0 0.00 0.00 0.00 61 1013.8
20260509102525 51 124 0.0 2.0 0.00 0.00 0.00 61 1013.6
20260509102021 51 155 1.0 2.0 0.00 0.00 0.00 61 1013.8
20260509101517 51 126 1.0 1.0 0.00 0.00 0.00 60 1013.6
20260509101014 52 141 0.0 0.0 0.00 0.00 0.00 59 1013.8